Погода в Тулуне

Россия / Иркутская область     54°33′25″N   100°34′40″E
темп.,
°C
ветер,
м/с
пор.,
м/с
влажн.,
%
обл.,
%
осадки,
мм/ч
давл.,
гПа
погр.,
м
8 марта, пн
пн823:00−3з2388100 0.0 101650
02:00−5ссз5109299 0.8 1020638
05:00−9зсз41280100 0.0 1023539
08:00−13сз3884100 0.0 1027189
11:00−8зсз377582 0.0 1027584
14:00−5ю126751 0.0 1026736
17:00−6юв468365 0.0 1023541
20:00−9юв4119157 0.0 1023285
9 марта, вт
вт923:00−9юв5139195 0.0 1020375
02:00−9ююв499498 0.0 1017246
05:00−12ююв239664 0.0 101564
08:00−10ю118982 0.0 101624
11:00−2ююз2389100 0.0 1017119
14:000ююз23100100 0.1 1017149
17:00+1сз31096100 0.3 1018851
20:00−7сз3108698 0.4 1024279
10 марта, ср
ср1023:00−11сз338659 0.0 102852
02:00−14ююз118629 0.0 102921
05:00−14ююв228867 0.0 102825
08:00−12юв399183 0.0 1027171
11:00−6ююв489071 0.0 1023365
14:00−2ююв359352 0.0 1019333
17:00−1юв24948 0.0 1018235
20:00−5юв129629 0.0 102021
11 марта, чт
чт1123:00−8ююв119721 0.0 102221
02:00−8ююв229841 0.0 102125
05:00−5ююв369894 0.0 1020259
08:00−5ююв599697 0.0 1017339
11:00−3ююв5108447 0.0 1013347
14:000ююв369943 0.0 1010242
17:00+1ю2310094 0.0 101194
20:00−1ююв229697 0.0 101349
12 марта, пт
пт1223:00−3ююв2299100 0.0 101446
02:00−5с119297 0.0 101421
05:00−2с4119594 0.1 1017635
08:00−4с399797 1.5 1019625
11:00−4ссз2589100 1.2 1021593
14:00−2ююв2284100 1.2 1019636
17:00−2ююв478995 0.0 1017529
20:00−4юв4109298 0.0 1016267